When you browse on this site, cookies collect data to enhance your experience and personalize the content and advertising you see.
Visit our Privacy Policy to learn more. By continuing to use the site, you agree to this use of cookies and data.
  • In Spain
  • List of Countries
  • For 7 days
  • Water Temperature
  • Satellite Maps
  • Weather Map
  • Weather Widgets
  • user-avatar
    Login

    Hourly Weather Adelaide

    Today, 17 November, Saturday

    Time Temperature Precipitation Wind Pressure Humidity
    00:00 +12°C° 0 mm 4 mps 763 mmHg 80%
    01:00 +11°C° 0 mm 4 mps 763 mmHg 79%
    02:00 +11°C° 0 mm 4 mps 763 mmHg 79%
    03:00 +11°C° 0 mm 3 mps 763 mmHg 79%
    04:00 +11°C° 0 mm 4 mps 763 mmHg 74%
    05:00 +12°C° 0 mm 4 mps 763 mmHg 69%
    06:00 +12°C° 0 mm 5 mps 763 mmHg 64%
    07:00 +14°C° 0 mm 5 mps 763 mmHg 54%
    08:00 +17°C° 0 mm 5 mps 763 mmHg 43%
    09:00 +20°C° 0 mm 4 mps 764 mmHg 31%
    10:00 +22°C° 0 mm 4 mps 763 mmHg 28%
    11:00 +23°C° 0 mm 4 mps 763 mmHg 26%
    12:00 +25°C° 0 mm 5 mps 762 mmHg 23%
    13:00 +26°C° 0 mm 5 mps 762 mmHg 24%
    14:00 +26°C° 0 mm 5 mps 761 mmHg 25%
    15:00 +26°C° 0 mm 5 mps 761 mmHg 27%
    16:00 +23°C° 0 mm 6 mps 761 mmHg 36%
    17:00 +22°C° 0 mm 6 mps 761 mmHg 44%
    18:00 +20°C° 0 mm 6 mps 761 mmHg 52%
    19:00 +19°C° 0 mm 6 mps 761 mmHg 59%
    20:00 +17°C° 0 mm 6 mps 761 mmHg 66%
    21:00 +15°C° 0 mm 5 mps 761 mmHg 72%
    22:00 +15°C° 0 mm 5 mps 761 mmHg 68%
    23:00 +15°C° 0 mm 5 mps 760 mmHg 64%

    Tomorrow, 18 November, Sunday

    Time Temperature Precipitation Wind Pressure Humidity
    00:00 +15°C° 0 mm 5 mps 760 mmHg 60%
    01:00 +15°C° 0 mm 5 mps 760 mmHg 59%
    02:00 +14°C° 0 mm 5 mps 760 mmHg 58%
    03:00 +14°C° 0 mm 4 mps 759 mmHg 56%
    04:00 +15°C° 0 mm 4 mps 759 mmHg 52%
    05:00 +15°C° 0 mm 4 mps 759 mmHg 48%
    06:00 +17°C° 0 mm 4 mps 759 mmHg 44%
    07:00 +20°C° 0 mm 4 mps 759 mmHg 37%
    08:00 +23°C° 0 mm 4 mps 759 mmHg 30%
    09:00 +26°C° 0 mm 4 mps 759 mmHg 23%
    10:00 +28°C° 0 mm 3 mps 758 mmHg 21%
    11:00 +29°C° 0 mm 3 mps 758 mmHg 18%
    12:00 +31°C° 0 mm 3 mps 757 mmHg 16%
    13:00 +31°C° 0 mm 3 mps 757 mmHg 15%
    14:00 +33°C° 0 mm 3 mps 756 mmHg 15%
    15:00 +33°C° 0 mm 3 mps 755 mmHg 14%
    16:00 +31°C° 0 mm 3 mps 755 mmHg 17%
    17:00 +29°C° 0 mm 3 mps 755 mmHg 20%
    18:00 +27°C° 0 mm 3 mps 755 mmHg 22%
    19:00 +26°C° 0 mm 3 mps 754 mmHg 23%
    20:00 +24°C° 0 mm 3 mps 754 mmHg 24%
    21:00 +22°C° 0 mm 4 mps 754 mmHg 25%
    22:00 +22°C° 0 mm 4 mps 754 mmHg 23%
    23:00 +22°C° 0 mm 4 mps 754 mmHg 21%

    Day after tomorrow, 19 November, Monday

    Time Temperature Precipitation Wind Pressure Humidity
    00:00 +23°C° 0 mm 4 mps 753 mmHg 19%
    01:00 +23°C° 0 mm 5 mps 753 mmHg 18%
    02:00 +23°C° 0 mm 5 mps 752 mmHg 18%
    03:00 +23°C° 0 mm 5 mps 752 mmHg 17%
    04:00 +25°C° 0 mm 5 mps 752 mmHg 17%
    05:00 +25°C° 0 mm 5 mps 752 mmHg 17%
    06:00 +26°C° 0 mm 6 mps 752 mmHg 16%
    07:00 +28°C° 0 mm 6 mps 752 mmHg 15%
    08:00 +30°C° 0 mm 6 mps 752 mmHg 15%
    09:00 +32°C° 0 mm 6 mps 752 mmHg 14%
    10:00 +34°C° 0 mm 6 mps 751 mmHg 13%
    11:00 +35°C° 0 mm 6 mps 751 mmHg 13%
    12:00 +36°C° 0 mm 6 mps 750 mmHg 12%
    13:00 +36°C° 0 mm 6 mps 750 mmHg 13%
    14:00 +36°C° 0 mm 6 mps 749 mmHg 13%
    15:00 +36°C° 0 mm 6 mps 749 mmHg 14%
    16:00 +34°C° 0 mm 5 mps 749 mmHg 17%
    17:00 +33°C° 0 mm 5 mps 749 mmHg 20%
    18:00 +32°C° 0 mm 4 mps 749 mmHg 24%
    19:00 +28°C° 0 mm 4 mps 749 mmHg 33%
    20:00 +26°C° 0 mm 5 mps 750 mmHg 43%
    21:00 +23°C° 0 mm 5 mps 750 mmHg 52%
    22:00 +22°C° 0.1 mm 5 mps 750 mmHg 62%
    23:00 +20°C° 0.1 mm 5 mps 751 mmHg 73%

    20 November, Tuesday

    Time Temperature Precipitation Wind Pressure Humidity
    00:00 +19°C° 0.1 mm 5 mps 751 mmHg 83%
    01:00 +17°C° 0.2 mm 5 mps 751 mmHg 84%
    02:00 +17°C° 0.2 mm 5 mps 751 mmHg 85%
    03:00 +16°C° 0.2 mm 5 mps 751 mmHg 87%
    04:00 +16°C° 0.2 mm 5 mps 752 mmHg 85%
    05:00 +16°C° 0.2 mm 5 mps 752 mmHg 83%
    06:00 +16°C° 0.2 mm 5 mps 753 mmHg 81%
    07:00 +17°C° 0 mm 4 mps 753 mmHg 76%
    08:00 +18°C° 0 mm 4 mps 753 mmHg 70%
    09:00 +19°C° 0 mm 4 mps 753 mmHg 65%
    10:00 +19°C° 0 mm 4 mps 752 mmHg 61%
    11:00 +20°C° 0 mm 4 mps 752 mmHg 56%
    12:00 +20°C° 0 mm 5 mps 752 mmHg 52%
    13:00 +20°C° 0 mm 4 mps 751 mmHg 51%
    14:00 +20°C° 0 mm 4 mps 751 mmHg 50%
    15:00 +19°C° 0 mm 4 mps 751 mmHg 50%
    16:00 +19°C° 0 mm 4 mps 751 mmHg 48%
    17:00 +18°C° 0 mm 4 mps 751 mmHg 47%
    18:00 +18°C° 0 mm 4 mps 751 mmHg 46%
    19:00 +17°C° 0 mm 4 mps 751 mmHg 54%
    20:00 +15°C° 0 mm 4 mps 751 mmHg 63%
    21:00 +13°C° 0 mm 4 mps 751 mmHg 71%
    22:00 +13°C° 0.1 mm 4 mps 751 mmHg 73%
    23:00 +13°C° 0.1 mm 4 mps 751 mmHg 75%

    21 November, Wednesday

    Time Temperature Precipitation Wind Pressure Humidity
    00:00 +13°C° 0.1 mm 4 mps 750 mmHg 77%
    01:00 +12°C° 0.1 mm 4 mps 750 mmHg 76%
    02:00 +12°C° 0.1 mm 4 mps 750 mmHg 74%
    03:00 +12°C° 0.1 mm 4 mps 749 mmHg 73%
    04:00 +12°C° 0 mm 5 mps 749 mmHg 70%
    05:00 +13°C° 0 mm 5 mps 749 mmHg 66%
    06:00 +13°C° 0 mm 5 mps 749 mmHg 62%
    07:00 +14°C° 0.2 mm 6 mps 749 mmHg 58%
    08:00 +15°C° 0.2 mm 8 mps 749 mmHg 54%
    09:00 +16°C° 0.2 mm 9 mps 748 mmHg 50%
    10:00 +15°C° 0.9 mm 9 mps 748 mmHg 53%
    11:00 +15°C° 0.9 mm 8 mps 747 mmHg 56%
    12:00 +13°C° 0.9 mm 8 mps 747 mmHg 59%
    13:00 +13°C° 0.7 mm 8 mps 747 mmHg 55%
    14:00 +13°C° 0.7 mm 8 mps 746 mmHg 52%
    15:00 +13°C° 0.7 mm 9 mps 746 mmHg 48%
    16:00 +12°C° 0.5 mm 9 mps 747 mmHg 55%
    17:00 +11°C° 0.5 mm 9 mps 748 mmHg 61%
    18:00 +10°C° 0.5 mm 9 mps 748 mmHg 68%
    19:00 +10°C° 0.3 mm 8 mps 749 mmHg 68%
    20:00 +9°C° 0.3 mm 8 mps 750 mmHg 68%
    21:00 +9°C° 0.3 mm 8 mps 751 mmHg 68%
    22:00 +9°C° 0.1 mm 8 mps 751 mmHg 68%
    23:00 +9°C° 0.1 mm 8 mps 751 mmHg 68%

    22 November, Thursday

    Time Temperature Precipitation Wind Pressure Humidity
    00:00 +9°C° 0.1 mm 7 mps 751 mmHg 67%
    01:00 +9°C° 0.1 mm 7 mps 751 mmHg 67%
    02:00 +9°C° 0.1 mm 8 mps 751 mmHg 68%
    03:00 +9°C° 0.1 mm 8 mps 751 mmHg 68%
    04:00 +10°C° 0.1 mm 8 mps 752 mmHg 66%
    05:00 +10°C° 0.1 mm 8 mps 752 mmHg 63%
    06:00 +11°C° 0.1 mm 8 mps 753 mmHg 61%
    07:00 +12°C° 0.1 mm 8 mps 753 mmHg 57%
    08:00 +13°C° 0.1 mm 8 mps 754 mmHg 52%
    09:00 +15°C° 0.1 mm 8 mps 754 mmHg 48%
    10:00 +16°C° 0.1 mm 8 mps 754 mmHg 47%
    11:00 +16°C° 0.1 mm 8 mps 754 mmHg 46%
    12:00 +16°C° 0.1 mm 8 mps 754 mmHg 44%
    13:00 +16°C° 0.1 mm 7 mps 754 mmHg 46%
    14:00 +16°C° 0.1 mm 7 mps 754 mmHg 47%
    15:00 +16°C° 0.1 mm 7 mps 754 mmHg 49%
    16:00 +15°C° 0 mm 6 mps 755 mmHg 50%
    17:00 +15°C° 0 mm 6 mps 755 mmHg 52%
    18:00 +14°C° 0 mm 5 mps 755 mmHg 54%
    19:00 +13°C° 0 mm 5 mps 756 mmHg 56%
    20:00 +12°C° 0 mm 5 mps 756 mmHg 59%
    21:00 +11°C° 0 mm 4 mps 757 mmHg 61%
    22:00 +11°C° 0 mm 4 mps 757 mmHg 62%
    23:00 +11°C° 0 mm 4 mps 757 mmHg 64%
    Show more